Location: *
(60.1759°S, 155.0663°W)
Time: 22:04:55
(UTC+00:00)

Helios 1A Rocket - Pass Details

Date: 17 September 2019
Orbit: 565 x 586 km, 98.3° (Epoch: 20 October)

Event Time Altitude Azimuth Distance (km) Brightness Sun altitude
Rises 13:19:26 0° 43° (NE) 2,835 6.5 -22.2°
Reaches altitude 10° 13:21:40 10° 50° (NE) 1,941 5.7 -22.0°
Maximum altitude 13:25:37 40° 119° (ESE) 891 4.3 -21.6°
Drops below altitude 10° 13:29:37 10° 188° (S) 1,962 6.0 -21.2°
Sets 13:31:53 0° 195° (SSW) 2,869 6.8 -21.0°
